Terug naar catalogus

ARIANE 5 DEB

ActiefGTO
NORAD 48422·DEBRIS·🇫🇷 France

Gelanceerd Oct 5, 2007 vanaf Guiana Space Centre

Loading…

TLE

VerouderdSource: Space-Track

Epoch: Sep 13, 2026, 19:35 UTC

1 48422U 07044E   26256.81613077 -.00000056  00000-0  18666-3 0  9991
2 48422   4.5768 357.6374 7192043  54.9512 352.6541  2.29227023106966

Volg ARIANE 5 DEB in realtime met AllMySat

Download on the App Store